Tracking 26443 objects as of 5-Dec-2022
HD Live streaming from Space Station
objects crossing your sky now

FREGAT DEB

Track FREGAT DEB now!
10-day predictions


NORAD ID: 40078
Int'l Code: 2014-037K
Perigee: 626.4 km
Apogee: 822.1 km
Inclination: 98.0 °
Period: 99.1 minutes
Semi major axis: 7095 km
RCS: Unknown
Launch date: July 8, 2014
Source: Commonwealth of Independent States (former USSR) (CIS)
Launch site: TYURATAM MISSILE AND SPACE COMPLEX (TTMTR)

Note: This is SATELLITE DEBRIS
aabbcc
Your satellite tracking list
Your tracking list is empty




NASA's NSSDC Master Catalog

Two Line Element Set (TLE):
1 40078U 14037K   22337.99838377  .00000263  00000-0  66893-4 0  9992
2 40078  97.9918 349.0294 0137892 116.9306 244.6054 14.52617940445479
Source of the keplerian elements: AFSPC